This demonstration page uses our WeatherBlox Daily Observations layout. Learn more.

Left ArrowRight Arrow

34.74481, -87.66753

Hourly Observations for June 1, 2018

Temp ( °F °C ) Dew Point ( °F °C ) Humidity (%) Winds ( mph kmh ) Pressure ( in mb ) Visibility ( mi km ) Precip ( " mm )
12:53 am 00:53 Mostly Clear 78 25.6 74 23.3 87 87 S 8 13 29.88 1012 10 16 0.00 0.00
1:53 am 01:53 Clear 77 25 74 23.3 90 90 S 6 9 29.90 1012 10 16 0.00 0.00
2:53 am 02:53 Clear 77 25 74 23.3 90 90 SSW 5 7 29.92 1013 10 16 0.00 0.00
3:53 am 03:53 Mostly Clear 77 25 74 23.3 90 90 SSW 9 15 29.92 1013 10 16 0.00 0.00
4:30 am 04:30 Mostly Cloudy with Nearby Thunderstorms 77 25 74 23.3 90 90 S 9 15 29.91 1013 10 16 0.00 0.03
4:45 am 04:45 Cloudy with Light Rain 74 23.3 66 18.9 76 76 NW 13 20 29.94 1014 10 16 0.00 0.03
4:53 am 04:53 Cloudy with Nearby Thunderstorms 72 22.2 66 18.9 82 82 NNW 10 17 29.93 1014 7 11 0.06 1.52
5:14 am 05:14 Cloudy 71 21.7 66 18.9 84 84 WSW 8 13 29.94 1014 10 16 0.02 0.51
5:53 am 05:53 Sunny 69 20.6 66 18.9 90 90 W 3 6 29.93 1014 10 16 0.02 0.51
6:53 am 06:53 Sunny 71 21.7 67 19.4 87 87 SW 5 7 29.93 1014 10 16 0.00 0.00
7:53 am 07:53 Sunny 73 22.8 68 20 84 84 SSE 5 7 29.97 1015 10 16 0.00 0.00
8:53 am 08:53 Mostly Cloudy 75 23.9 69 20.6 82 82 SSW 3 6 29.96 1015 10 16 0.00 0.00
9:32 am 09:32 Partly Cloudy with Nearby Thunderstorms 77 25 69 20.6 77 77 NW 15 24 29.97 1015 10 16 0.00 0.00
9:53 am 09:53 Cloudy with Thunderstorms 74 23.3 67 19.4 79 79 N 12 19 29.98 1015 1 2 0.01 0.25
9:59 am 09:59 Cloudy with Thunderstorms 73 22.8 66 18.9 79 79 NNW 8 13 29.97 1015 6 10 0.00 0.03
10:25 am 10:25 Cloudy with Nearby Thunderstorms 71 21.7 67 19.4 87 87 Calm 29.97 1015 7 11 0.05 1.27
10:53 am 10:53 Cloudy with Nearby Thunderstorms 70 21.1 67 19.4 90 90 SW 10 17 29.99 1016 6 10 0.13 3.30
11:21 am 11:21 Mostly Cloudy with Light Rain 70 21.1 67 19.4 90 90 S 8 13 29.97 1015 10 16 0.04 1.02
11:53 am 11:53 Sunny 73 22.8 67 19.4 81 81 SSW 5 7 29.94 1014 10 16 0.04 1.02
12:53 pm 12:53 Partly Cloudy 75 23.9 69 20.6 82 82 Calm 29.96 1015 10 16 0.00 0.00
1:53 pm 13:53 Partly Cloudy with Light Rain 74 23.3 70 21.1 88 88 S 3 6 29.97 1015 10 16 0.00 0.03
2:48 pm 14:48 Mostly Cloudy 75 24 72 22 89 89 NNE 3 6 29.94 1014 10 16 0.03 0.76
2:53 pm 14:53 Partly Cloudy 75 23.9 71 21.7 88 88 Calm 29.93 1014 10 16 0.03 0.76
3:53 pm 15:53 Sunny 80 26.7 71 21.7 74 74 VRB 6 9 29.90 1013 10 16 0.00 0.00
4:53 pm 16:53 Sunny 82 27.8 71 21.7 69 69 ESE 6 9 29.91 1013 10 16 0.00 0.00
5:53 pm 17:53 Sunny 82 27.8 71 21.7 69 69 ESE 5 7 29.89 1012 10 16 0.00 0.00
6:53 pm 18:53 Mostly Cloudy 81 27.2 71 21.7 72 72 SE 3 6 29.90 1013 10 16 0.00 0.00
7:53 pm 19:53 Mostly Cloudy 79 26.1 72 22.2 79 79 S 3 6 29.90 1013 10 16 0.00 0.00
8:53 pm 20:53 Mostly Cloudy 77 25 73 22.8 88 88 Calm 29.90 1013 10 16 0.00 0.00
9:53 pm 21:53 Clear 75 23.9 73 22.8 94 94 SSE 3 6 29.91 1013 10 16 0.00 0.00
10:53 pm 22:53 Mostly Clear 75 23.9 72 22.2 90 90 Calm 29.93 1014 10 16 0.00 0.00
11:53 pm 23:53 Partly Cloudy 73 22.8 72 22.2 96 96 Calm 29.91 1013 8 13 0.00 0.00

Powered by AerisWeather